GFSCGP_925_spd_057.txt.gz
Wind_Speed
7 5 19 32 16 5 4 4 6 4 8 7 15 7 18 20 16 20 19 20 21 22 23 28 28 31 32 33 35 38 39 39 35 34 31 29 23 18 17 17 21 20 17 15
5 18 18 5 8 10 7 5 6 5 6 10 11 14 15 19 22 22 20 19 22 21 20 26 29 31 31 36 37 40 41 42 40 38 37 34 30 24 19 15 17 21 19 16
10 7 16 10 11 13 14 16 10 8 3 10 8 6 8 13 11 13 18 20 19 22 23 23 27 34 33 33 38 40 42 42 45 42 37 31 28 27 24 20 18 15 20 18
13 21 12 16 16 16 14 16 14 13 5 4 8 5 8 13 18 17 20 21 20 22 20 19 24 31 36 34 38 42 43 41 45 44 39 35 29 26 30 29 22 18 17 19
16 14 17 16 23 19 14 8 10 10 3 5 7 4 7 17 19 22 22 22 22 23 22 24 25 36 41 37 36 41 43 42 41 45 40 40 32 29 28 31 25 20 19 20
11 10 13 25 13 13 5 5 4 1 3 9 13 10 5 12 26 24 23 23 21 21 24 24 34 33 35 39 37 38 40 41 42 45 45 42 36 32 30 27 29 25 23 25
10 16 17 8 16 9 12 8 3 4 6 11 7 10 13 17 24 29 30 28 26 24 21 21 24 29 34 37 37 38 39 39 41 44 44 45 42 38 32 31 31 31 28 27
5 8 12 8 14 11 11 11 6 9 5 6 7 7 6 15 24 27 28 27 17 18 19 20 23 31 35 37 39 40 40 40 40 45 44 46 44 40 36 33 33 31 31 31
5 8 14 20 15 17 11 17 11 5 3 2 6 5 6 7 14 14 21 15 21 22 21 21 19 28 35 38 41 42 41 42 42 44 43 41 43 41 40 37 35 36 32 27
4 7 7 13 9 17 20 9 8 5 8 8 4 5 7 11 15 13 16 20 20 22 20 19 19 27 33 38 42 43 43 44 44 44 42 42 44 45 41 38 37 36 33 31
2 3 9 10 7 23 11 11 5 6 4 11 1 7 7 12 16 13 16 20 23 22 23 21 20 32 32 35 37 41 40 40 39 40 40 38 39 41 41 39 39 37 36 35
2 1 7 11 17 18 11 11 8 11 12 3 3 14 5 10 13 14 16 17 20 23 24 21 22 29 33 33 36 39 40 39 40 40 39 40 39 39 40 43 42 40 39 36
1 1 6 7 2 2 4 13 16 9 4 10 15 11 3 5 5 9 11 11 15 20 23 21 19 22 27 33 35 37 38 39 39 38 38 36 36 37 40 42 43 42 40 38
5 3 7 7 7 9 10 17 9 11 13 6 19 5 10 12 9 8 10 11 16 21 24 21 21 23 26 34 33 35 36 38 38 37 36 35 36 37 39 42 41 43 43 42
2 5 10 16 25 20 19 22 22 11 10 17 14 10 13 11 9 8 8 12 16 25 23 22 23 22 21 27 30 32 35 36 37 35 35 37 37 38 40 40 42 42 40 42
5 3 4 16 23 20 19 18 16 19 13 7 6 13 8 2 3 8 10 10 14 21 22 24 24 24 22 28 33 32 33 35 37 36 37 39 37 37 39 41 40 39 40 41
5 3 2 7 5 4 6 7 12 4 14 4 8 4 11 5 11 12 12 7 14 19 21 24 24 23 23 32 36 35 37 34 36 36 36 33 33 34 36 37 34 35 37 37
5 4 3 5 7 7 10 10 8 22 20 18 12 10 2 11 9 17 16 12 10 4 16 21 20 20 31 32 34 31 29 33 33 33 33 32 33 35 32 31 33 32 33 34
11 2 3 3 4 5 1 7 9 5 19 21 19 15 1 13 16 16 20 15 11 11 9 5 9 16 23 24 25 27 27 29 29 31 33 33 35 33 31 33 33 34 31 31
12 9 4 3 1 4 3 18 19 11 10 21 20 18 14 7 8 5 16 16 16 17 11 11 17 20 21 24 33 29 27 28 29 33 35 32 33 34 33 36 33 34 32 33
4 4 6 8 4 3 8 21 12 7 1 14 16 16 15 12 3 4 10 16 15 16 18 21 25 20 13 17 30 27 26 29 29 23 26 30 36 35 33 32 31 29 30 28
3 2 0 3 2 2 14 9 7 3 2 6 11 15 15 8 7 8 12 14 16 16 19 24 22 22 23 24 21 18 12 13 19 23 29 34 34 32 31 33 32 31 29 28
4 4 3 4 3 3 6 4 6 10 6 7 11 12 14 11 7 8 8 9 10 12 16 21 19 21 26 28 24 23 18 15 10 13 21 27 31 34 32 33 30 28 30 28
7 9 3 7 7 11 13 3 8 12 10 9 8 10 11 13 8 7 7 7 8 11 14 19 18 19 20 27 27 22 20 17 17 16 11 5 10 20 26 29 27 26 24 24
4 8 7 4 7 18 1 12 13 12 13 13 12 9 10 10 11 6 5 6 6 9 16 22 19 17 20 25 25 22 21 19 15 14 12 7 4 2 9 21 26 27 28 29
5 2 1 2 7 7 13 14 13 13 12 12 12 14 11 10 10 5 5 6 7 10 16 19 19 20 23 25 24 25 23 22 17 16 16 11 9 8 8 13 19 23 28 29

GFSCGP_925_spd_060.txt.gz
Wind_Speed
6 5 19 22 13 2 5 5 6 4 5 6 11 10 15 16 13 15 17 17 19 19 21 24 26 28 28 30 33 35 35 35 31 30 26 23 21 16 15 13 14 16 16 13
4 14 14 8 5 5 7 3 4 4 3 6 6 14 10 18 22 20 18 19 19 17 18 23 26 30 31 33 36 37 37 37 35 33 30 26 24 19 16 16 15 16 16 14
7 6 12 13 7 11 8 16 6 3 2 7 4 5 6 12 8 13 15 17 16 20 21 19 25 29 30 32 36 39 40 39 38 35 31 25 23 22 19 16 15 16 17 16
8 8 10 13 15 11 9 15 12 7 2 4 8 5 5 8 17 17 18 18 17 20 19 17 23 27 32 34 34 38 41 41 39 37 33 32 27 24 25 23 18 16 12 17
6 7 10 13 15 14 11 9 14 12 6 4 4 3 6 11 12 19 21 21 20 19 21 22 24 31 31 29 34 36 40 42 40 40 37 35 31 25 24 25 22 19 17 15
6 3 3 15 13 16 6 1 4 3 4 9 12 7 5 7 16 18 20 20 21 21 22 21 30 31 31 32 31 33 38 41 43 42 41 39 36 33 27 25 25 25 22 19
7 4 2 5 2 14 13 10 2 3 5 13 11 12 13 5 12 18 21 23 22 21 20 21 21 26 31 33 32 32 36 40 40 41 42 42 41 39 38 33 31 31 29 24
5 2 3 4 7 8 14 10 6 8 4 12 6 8 7 20 10 12 18 18 16 18 19 21 22 29 32 34 36 35 37 38 39 42 43 42 42 41 39 35 30 30 31 29
3 6 7 5 4 2 7 17 11 4 1 1 9 5 7 6 19 18 14 11 18 22 22 24 20 31 33 35 38 38 38 38 41 44 44 41 42 42 41 39 33 29 28 28
3 5 3 8 6 10 8 3 7 3 7 5 3 7 10 11 10 13 7 13 17 21 23 18 20 30 36 39 39 39 42 42 42 43 41 41 42 44 44 41 37 32 29 26
4 3 6 6 5 4 4 9 5 7 8 8 2 6 6 12 15 15 13 15 16 19 22 22 21 31 36 36 38 40 41 39 37 40 41 38 40 41 42 43 41 36 32 28
2 1 5 9 13 8 5 5 7 8 12 6 4 7 4 10 9 12 16 16 17 20 22 21 20 25 31 37 39 41 40 39 40 41 41 40 40 40 41 43 43 39 35 30
5 2 4 8 2 2 0 4 4 5 3 15 13 7 6 6 7 9 10 8 13 17 16 17 14 18 26 33 37 40 39 39 39 36 37 36 35 36 41 43 43 41 37 35
5 1 6 7 1 5 7 14 10 2 5 6 14 8 8 11 8 7 8 7 9 11 17 17 15 19 26 32 36 37 37 38 37 36 36 36 37 41 42 42 41 40 38 37
4 4 7 18 21 14 14 18 17 6 8 4 6 10 9 11 11 9 6 5 6 9 11 17 19 19 19 26 32 33 36 37 38 36 35 37 37 38 39 40 42 40 39 39
6 4 8 17 14 16 16 17 16 17 19 12 15 12 4 5 3 8 6 5 8 12 16 20 22 21 21 28 34 36 36 37 37 36 37 36 36 38 40 41 40 39 38 39
9 4 3 6 3 7 6 18 12 5 9 4 6 1 6 2 6 7 9 9 11 12 11 19 22 22 21 33 35 38 37 36 37 36 36 35 36 37 37 37 35 37 39 38
8 5 3 4 3 4 4 6 14 17 13 14 11 13 4 7 5 6 11 11 13 14 11 14 17 19 32 36 34 30 34 36 37 34 31 31 33 33 32 33 34 33 33 36
7 4 4 3 2 4 6 6 5 6 7 15 13 15 10 6 2 5 16 16 12 13 11 6 16 17 23 28 32 32 31 32 31 30 32 35 36 33 33 33 32 33 31 32
9 5 6 2 3 7 5 13 5 5 6 15 14 14 13 4 6 6 17 14 14 13 11 6 18 23 24 25 31 30 29 30 31 35 34 32 33 34 34 35 34 33 33 31
5 4 12 7 4 1 14 16 4 5 1 11 12 11 11 8 2 5 11 15 13 14 18 20 20 14 16 32 33 25 26 29 27 26 29 31 34 35 34 30 31 30 30 28
4 4 3 2 6 2 18 6 6 3 2 8 9 9 9 9 9 10 13 16 19 19 21 26 21 20 16 16 25 20 19 22 27 30 32 33 35 34 33 35 32 32 31 28
3 3 1 1 3 8 10 4 6 4 5 5 6 8 8 9 11 11 12 14 15 17 21 26 23 25 29 28 21 19 5 12 19 25 28 29 30 32 31 31 27 25 27 26
6 6 1 4 4 9 3 8 8 6 7 5 5 7 7 8 10 9 10 11 11 14 18 24 28 27 26 29 31 24 20 18 15 14 19 23 21 25 27 27 26 25 24 23
2 5 4 4 7 6 7 10 9 11 9 8 4 6 10 10 10 6 7 9 8 12 19 22 22 22 23 28 30 28 23 18 20 16 13 12 11 16 23 26 26 26 25 26
9 6 5 3 9 6 8 12 15 11 8 8 8 10 9 9 9 9 6 6 8 11 18 20 22 24 27 28 27 26 24 20 16 15 12 9 5 4 9 15 20 26 27 26

GFSCGP_925_spd_063.txt.gz
Wind_Speed
8 12 21 23 16 13 6 9 11 6 9 14 17 16 12 15 14 16 18 20 22 24 26 29 29 28 26 26 25 25 24 23 21 18 18 16 15 12 12 13 11 11 11 9
6 18 20 13 12 14 15 9 11 9 7 8 14 21 11 17 19 20 22 22 22 22 22 28 30 31 31 29 28 27 27 25 27 21 18 14 15 11 8 11 11 11 11 10
15 4 15 14 16 15 19 21 12 7 3 11 9 16 13 15 14 16 18 18 17 23 25 24 31 33 32 33 31 29 30 29 29 24 18 16 12 12 9 9 12 12 13 12
13 18 9 17 22 19 19 17 16 15 7 11 16 13 15 14 19 20 20 21 22 24 23 23 29 33 36 35 32 30 30 30 30 30 23 22 20 17 15 12 12 13 14 14
8 10 18 15 15 18 16 9 18 18 14 11 12 11 16 12 17 21 22 24 24 24 25 25 29 36 35 33 32 31 30 32 32 31 29 24 21 18 15 15 16 16 15 13
7 6 8 19 13 18 10 5 11 12 14 17 22 14 16 14 18 18 21 22 24 25 26 25 33 33 34 33 32 32 31 34 36 34 32 30 24 20 17 17 19 17 15 14
1 6 6 7 11 17 17 14 7 6 9 18 18 17 16 9 14 18 20 24 25 25 24 24 25 30 33 35 35 33 32 33 36 34 32 33 30 27 25 23 21 19 17 16
3 8 3 4 10 9 22 20 8 13 9 13 17 13 16 23 20 11 14 17 21 23 23 25 27 32 35 37 36 36 35 34 35 36 36 36 36 29 29 28 24 21 19 19
2 4 2 1 4 4 14 22 23 11 2 9 13 17 14 13 16 23 16 14 19 24 25 27 28 36 37 37 38 38 36 36 34 36 36 36 37 36 29 30 31 23 22 16
1 5 2 3 5 12 10 12 18 12 17 14 7 18 14 22 19 15 21 20 19 21 24 24 25 34 37 40 40 39 39 37 38 37 36 34 37 39 37 31 33 29 25 21
1 3 2 5 5 8 8 11 10 14 17 11 15 10 10 17 21 21 17 19 21 22 24 25 24 34 38 38 38 40 39 37 36 37 38 36 34 34 32 30 30 32 31 26
2 2 5 8 12 7 9 6 13 13 20 18 15 8 3 12 19 21 22 18 21 23 23 23 23 30 34 36 38 41 40 39 39 38 36 36 35 33 30 32 29 29 31 30
6 3 4 5 5 5 4 3 7 11 13 18 16 17 19 14 9 9 10 13 13 17 16 17 19 21 28 35 37 38 39 41 40 38 36 35 35 33 34 34 31 27 31 33
6 4 8 8 10 10 10 10 12 7 12 17 17 16 20 21 14 10 8 8 9 11 15 17 18 20 26 33 36 37 37 39 38 38 37 36 35 36 36 35 31 28 32 33
4 7 8 13 15 14 18 22 20 16 15 11 18 18 14 19 19 21 13 5 5 5 12 17 20 18 21 29 33 35 36 36 37 36 36 36 36 37 35 30 30 29 29 31
4 4 7 15 14 16 22 23 22 21 21 16 18 17 11 12 8 5 8 8 9 8 9 15 19 19 20 29 34 38 38 39 39 37 37 36 34 33 33 33 31 30 31 30
7 4 4 11 10 18 14 25 24 19 12 18 19 14 8 10 4 6 7 9 11 12 10 14 18 19 22 32 36 38 41 37 38 36 35 34 34 33 33 33 31 32 32 28
8 6 2 8 9 10 12 6 22 19 5 6 11 6 8 8 6 7 9 9 11 13 14 15 14 19 31 35 35 30 35 37 36 35 35 34 34 34 31 30 31 31 28 30
15 8 5 5 6 15 12 4 13 17 4 4 7 5 6 7 6 2 14 13 13 13 14 17 22 26 23 30 32 33 34 35 35 35 35 35 34 31 30 30 30 28 26 26
15 15 9 6 6 7 3 12 11 3 5 7 6 7 9 6 5 5 15 14 13 12 13 14 19 22 26 29 34 33 33 34 35 36 36 32 32 31 31 30 31 30 29 28
8 8 14 12 8 12 7 21 12 6 5 5 8 9 11 8 6 6 11 11 9 11 13 8 11 19 23 29 32 30 30 33 33 29 29 30 33 34 33 32 29 28 28 25
7 8 6 7 10 12 11 14 3 4 3 6 8 10 10 9 8 9 10 11 14 16 21 21 17 15 15 23 28 25 22 22 24 26 28 29 30 30 27 28 25 26 25 25
4 4 1 3 2 6 11 10 7 6 3 7 8 10 9 9 10 10 10 11 14 16 21 24 23 27 27 18 13 14 12 19 25 27 27 27 26 27 25 26 24 23 24 23
1 1 3 3 2 10 10 8 10 9 7 8 9 9 10 10 11 9 10 10 12 15 18 23 28 27 26 26 25 20 11 7 19 21 21 21 24 25 25 23 24 24 23 23
4 7 7 2 2 11 12 9 10 11 7 7 8 9 11 10 10 10 10 10 10 13 17 21 22 22 23 26 28 24 24 13 8 10 12 13 15 20 19 21 20 22 23 24
8 8 5 3 11 7 8 11 12 9 9 8 8 10 11 10 9 10 8 10 13 12 16 19 21 22 22 24 24 23 22 19 14 13 10 11 7 9 15 16 16 22 21 23

GFSCGP_925_spd_069.txt.gz
Wind_Speed
19 15 20 23 22 21 19 17 21 18 20 16 21 19 21 18 19 19 19 20 21 23 25 30 29 29 28 27 26 26 24 21 22 19 18 16 16 14 12 10 8 7 5 6
14 21 20 19 18 21 22 15 15 19 14 16 18 21 15 17 18 19 19 19 21 22 25 28 31 31 30 29 28 27 25 22 23 20 19 16 16 16 13 11 10 9 8 7
22 11 21 21 20 19 20 20 16 15 12 11 19 21 22 16 20 18 19 18 20 22 25 25 30 33 32 32 31 29 27 25 25 21 19 16 16 13 14 14 10 12 10 9
21 21 11 22 23 21 20 18 19 18 17 15 20 16 21 18 18 20 20 19 21 23 24 25 29 32 35 35 33 31 30 28 26 23 23 21 19 18 16 14 14 15 12 10
16 18 24 20 21 21 19 16 19 19 17 17 20 18 18 26 24 24 21 22 21 23 25 26 29 36 36 35 35 34 32 30 28 28 23 24 21 19 17 17 16 12 14 11
17 16 17 23 19 16 18 18 19 16 16 18 24 22 21 18 30 25 24 21 23 24 25 25 34 35 35 36 35 35 34 33 31 31 30 25 25 20 19 17 17 17 15 14
19 20 19 13 17 23 17 20 14 14 16 18 24 24 20 20 22 28 26 26 24 23 23 24 25 30 36 38 39 37 37 35 35 32 33 27 25 25 15 18 17 18 18 16
14 16 22 19 22 21 27 22 15 26 16 19 24 25 23 25 19 22 24 26 25 23 23 24 25 32 37 38 38 36 38 38 37 36 34 34 30 26 24 20 20 19 18 16
11 23 1 5 18 22 22 26 26 27 23 20 20 27 22 26 27 23 12 22 24 27 23 26 26 32 35 37 38 40 38 40 39 39 36 33 33 32 28 24 27 20 19 14
8 13 12 10 9 16 22 17 23 19 25 25 20 24 19 24 20 27 19 14 19 27 26 24 24 32 35 38 39 38 37 38 40 38 38 37 35 34 29 27 24 24 18 18
14 8 17 11 12 20 17 21 15 18 23 19 17 15 14 23 22 21 26 19 19 19 24 23 23 32 35 35 37 39 39 36 38 38 38 37 36 34 35 29 28 24 21 18
10 11 15 19 16 22 26 20 27 15 21 21 19 12 11 16 20 20 21 25 24 21 20 22 22 28 33 35 36 38 40 42 40 40 39 39 37 36 34 36 30 27 25 23
11 10 13 16 14 16 14 18 18 20 23 22 20 19 4 5 6 7 18 20 20 22 21 19 21 22 27 33 33 37 39 41 41 39 40 37 37 37 37 35 34 31 28 26
3 13 16 14 7 11 18 23 13 20 17 23 20 22 20 8 8 1 6 8 20 17 19 22 21 22 28 31 32 33 37 40 40 39 40 39 40 39 38 35 34 32 30 28
11 17 18 19 16 14 16 8 13 19 20 17 18 20 20 11 10 10 3 5 5 3 5 10 13 15 17 27 30 33 35 36 39 38 38 39 40 39 37 36 34 33 32 30
13 15 16 18 21 14 17 16 17 18 20 20 21 23 24 18 18 16 3 7 3 6 6 5 12 16 16 22 27 31 35 35 37 37 38 37 37 38 38 38 37 35 33 32
12 10 13 17 17 19 20 22 21 21 21 21 22 24 22 19 18 18 5 4 9 10 9 8 10 9 13 22 26 29 35 34 35 33 36 36 36 37 38 38 37 36 35 33
8 11 10 9 12 16 14 16 18 16 17 24 25 24 26 25 22 26 18 3 10 12 11 10 10 13 15 20 25 28 33 36 34 37 33 36 35 37 36 36 37 36 35 34
17 12 6 8 14 15 19 10 4 5 13 19 19 21 25 27 23 26 17 18 10 13 13 13 15 16 17 20 21 25 29 34 35 34 37 38 38 36 35 36 36 35 33 32
21 18 9 11 15 19 17 12 3 6 15 18 22 22 19 23 18 16 14 9 9 12 14 17 17 18 20 22 24 25 30 29 36 37 41 36 36 36 36 36 34 33 33 32
5 8 16 15 14 12 16 10 4 9 5 21 24 13 10 13 14 12 7 9 9 12 14 13 16 20 22 23 25 25 30 33 35 32 31 32 35 35 34 32 32 33 33 31
6 6 10 15 19 19 7 5 9 6 7 17 21 15 12 10 8 7 7 8 9 11 10 9 9 13 23 20 23 24 24 29 26 31 30 31 33 33 32 31 30 30 30 28
4 5 5 5 6 8 7 11 15 10 8 17 23 14 13 6 2 7 5 8 7 9 12 11 11 14 22 24 9 18 16 25 25 27 27 28 30 31 29 31 29 28 27 28
3 6 4 7 4 14 19 21 16 18 12 14 19 10 10 7 7 3 4 6 8 10 12 14 12 15 20 22 21 15 11 18 24 26 26 27 29 29 28 30 30 29 29 28
3 4 5 4 7 15 13 12 15 20 14 20 7 6 5 7 5 6 5 6 7 10 13 13 13 15 19 21 23 20 18 7 22 24 26 27 29 30 29 28 29 29 28 29
5 4 3 2 8 7 8 15 20 6 7 4 2 3 4 3 4 5 5 6 8 10 12 13 15 17 19 21 25 29 29 16 9 20 24 28 28 30 30 29 18 23 21 23

GFSCGP_925_spd_072.txt.gz
Wind_Speed
17 12 16 19 21 21 21 19 18 17 20 20 21 14 15 15 13 8 14 20 22 24 21 28 27 29 31 28 29 23 24 31 26 19 16 14 13 12 15 14 13 9 6 5
13 20 18 19 21 21 23 21 20 15 19 20 17 15 17 10 5 17 25 22 22 23 26 24 26 28 31 30 31 27 25 30 28 19 19 16 14 14 12 18 17 9 7 7
20 15 22 21 19 20 19 21 19 17 12 20 18 17 19 13 15 14 30 23 23 23 25 23 25 29 30 31 32 33 27 29 27 21 21 17 16 17 18 15 14 11 11 8
19 20 22 20 22 19 20 19 20 20 15 14 14 14 21 25 25 19 13 24 24 23 23 23 26 27 31 33 33 34 30 28 30 26 22 19 16 14 17 17 15 17 13 12
15 20 19 23 16 20 20 19 16 18 18 19 22 16 17 23 21 10 17 20 25 25 25 26 25 33 33 33 34 33 34 29 30 33 23 24 21 18 17 19 21 21 17 13
15 18 16 18 20 17 16 20 18 16 16 16 21 19 15 16 21 21 14 23 22 26 24 25 32 34 31 33 34 34 36 34 31 37 28 27 27 19 16 19 24 19 20 17
16 18 18 17 14 20 19 15 12 15 15 17 21 19 15 16 24 27 26 26 21 25 25 22 25 27 34 36 38 38 40 37 36 35 34 26 32 30 20 21 20 21 19 23
15 13 20 18 20 17 22 20 15 19 15 18 21 21 19 21 23 29 28 19 12 24 26 27 25 30 36 37 40 40 42 40 39 35 38 33 30 32 25 15 19 18 22 22
11 18 20 8 19 17 22 20 22 24 22 17 17 17 25 20 23 20 25 24 12 30 26 28 27 32 36 37 39 41 40 41 41 40 37 38 33 29 26 21 21 22 20 13
10 17 20 18 12 13 18 20 20 16 22 23 19 23 15 21 19 20 20 25 26 19 27 26 23 29 36 39 38 38 38 41 40 41 36 36 37 37 29 30 23 22 20 19
10 13 22 20 17 18 16 17 21 15 16 17 17 16 17 21 23 19 21 19 25 25 18 22 22 29 33 37 38 39 37 39 40 39 39 36 36 35 39 28 33 29 28 16
10 12 16 19 23 15 16 18 22 14 19 16 18 17 12 17 23 19 15 17 16 26 26 7 6 27 30 33 37 38 40 38 41 41 39 39 36 37 36 37 32 30 31 29
11 12 11 17 18 22 15 23 23 22 21 19 16 18 18 13 7 18 16 15 13 12 18 11 7 23 28 35 35 37 39 41 38 39 38 37 38 36 38 39 35 35 32 27
11 13 16 15 15 15 14 20 20 24 16 18 19 19 20 12 21 10 8 8 11 9 15 24 27 34 40 36 37 35 37 39 39 39 38 38 40 40 39 36 40 33 35 34
8 16 19 22 27 20 21 19 15 22 21 21 19 21 15 20 18 19 20 4 9 6 9 10 8 17 18 23 34 35 34 38 38 37 39 40 39 39 38 37 36 41 34 34
8 10 18 20 22 21 23 21 20 22 29 22 23 20 17 17 19 18 17 24 11 15 16 16 13 10 21 36 32 36 36 37 37 38 39 37 37 38 37 37 37 37 38 36
6 5 8 17 18 20 22 24 19 18 18 13 18 20 17 8 14 13 15 15 18 12 13 15 14 12 13 9 16 29 34 34 37 34 35 37 38 38 40 37 36 36 38 36
10 6 1 8 11 13 16 18 20 21 20 19 21 20 20 16 17 13 10 16 17 9 10 11 13 16 19 19 24 32 32 34 32 35 34 37 38 39 38 38 38 37 36 37
16 12 5 4 10 16 17 14 7 12 19 16 14 15 19 21 16 19 12 18 19 13 4 9 15 20 21 23 26 18 28 35 34 31 36 37 39 37 37 39 38 37 35 34
14 13 8 9 8 9 15 10 10 11 10 8 12 15 18 20 14 12 2 13 18 14 16 17 17 19 20 21 25 25 17 28 33 37 34 32 36 35 37 38 38 37 36 36
7 7 14 11 12 12 12 0 9 9 6 10 11 13 18 16 16 11 12 9 7 15 15 16 15 15 18 18 31 28 23 24 33 33 31 35 33 38 37 35 34 35 35 33
5 6 5 9 13 15 13 5 11 10 15 14 14 14 16 21 24 17 8 8 8 10 15 19 14 17 19 25 33 25 23 21 26 31 35 31 34 33 33 35 34 34 35 34
2 4 4 5 4 14 14 16 18 15 17 20 20 15 15 18 19 16 11 9 8 10 14 16 17 14 18 22 26 24 15 23 24 28 32 30 33 33 32 35 33 32 33 31
3 5 3 9 6 18 18 18 16 15 17 19 21 16 14 17 17 15 10 8 8 11 12 15 16 14 17 22 25 24 25 18 29 27 30 28 29 31 33 30 33 32 31 30
3 9 5 5 9 18 8 17 18 21 23 22 22 14 13 13 10 9 9 10 11 11 11 11 13 15 16 20 22 23 27 19 11 22 25 25 27 32 30 31 31 32 32 33
2 2 2 3 10 6 11 14 17 16 24 16 16 13 14 5 3 8 6 6 7 9 11 10 10 13 16 19 21 24 24 23 14 11 18 21 24 26 27 30 25 33 32 33

GFSCGP_925_spd_075.txt.gz
Wind_Speed
6 3 8 9 10 10 14 15 13 11 12 9 15 18 24 21 19 23 21 18 18 20 17 24 36 37 35 39 38 31 35 30 26 21 21 14 17 20 19 20 15 15 13 6
6 11 9 10 13 12 17 16 16 14 14 9 9 13 20 18 21 25 23 14 15 21 18 20 29 36 34 39 38 35 34 33 30 27 24 17 14 18 14 19 15 14 13 10
10 11 18 15 12 15 15 11 13 12 19 14 6 4 9 12 8 9 7 9 4 24 21 18 21 34 33 37 40 38 33 38 32 30 25 19 15 17 16 20 20 17 13 11
10 15 15 16 16 14 9 10 12 14 10 5 5 4 6 12 8 15 12 8 5 12 23 19 20 31 34 38 43 39 37 38 36 31 30 25 18 18 16 27 23 19 15 13
8 11 12 16 13 15 12 10 9 10 9 5 18 3 6 16 7 7 15 9 11 16 19 24 24 29 35 38 40 42 39 40 39 32 31 28 21 19 18 22 27 20 17 15
9 11 6 7 12 12 6 7 11 7 2 5 11 2 10 11 17 9 12 18 7 25 21 26 36 33 33 36 38 42 41 41 41 38 31 31 27 24 19 23 26 25 22 18
6 10 11 11 9 6 7 4 3 4 5 10 8 7 10 6 21 26 30 26 33 32 13 22 25 29 31 37 39 41 41 41 44 41 36 33 32 30 19 22 24 30 25 22
4 9 8 4 6 6 7 7 5 7 5 9 9 8 9 12 14 25 31 33 23 23 19 27 27 34 35 39 41 41 42 39 43 45 44 36 34 33 29 13 26 30 27 25
7 6 17 15 16 13 9 7 8 6 9 7 6 9 18 11 9 18 24 21 21 21 20 23 26 36 38 37 42 43 43 40 40 43 44 41 37 37 33 27 18 29 26 26
8 5 6 14 15 10 9 5 3 3 7 12 5 11 6 6 13 14 20 24 23 15 8 10 4 28 40 40 38 38 41 42 41 39 42 41 40 40 38 32 23 22 25 20
5 3 9 9 4 9 12 3 4 2 3 10 9 7 9 8 7 18 19 27 24 16 16 13 8 13 28 40 38 39 38 41 39 41 38 39 41 39 36 33 31 26 23 19
9 4 5 13 18 17 15 12 9 4 8 4 3 6 23 13 19 31 12 25 26 21 14 9 7 14 20 33 39 42 40 42 43 42 38 39 39 40 42 36 36 31 29 25
7 4 4 9 9 1 6 12 13 2 3 9 5 5 12 14 16 20 23 23 16 19 19 21 17 21 25 41 40 43 43 44 44 41 41 37 37 42 42 42 36 38 32 33
6 3 4 5 11 10 12 22 22 11 6 9 10 12 10 13 15 19 18 23 17 22 24 23 21 21 27 35 31 35 41 41 43 43 41 40 40 38 40 38 42 36 38 37
4 4 8 14 17 16 17 19 23 20 11 3 10 11 3 6 11 13 12 16 20 13 4 2 4 12 36 20 11 11 31 38 40 40 40 41 39 38 34 37 38 45 36 41
1 5 7 13 17 19 20 18 19 21 19 11 12 15 7 8 13 15 12 11 13 10 6 5 13 12 6 18 21 9 17 35 39 40 40 39 38 39 39 36 34 39 42 39
1 2 3 5 10 15 15 14 16 20 19 11 10 5 10 11 14 16 14 10 13 12 17 4 3 9 13 14 20 14 30 32 38 39 39 40 40 39 40 37 36 36 40 38
7 4 4 4 4 5 7 16 17 19 20 16 12 9 13 14 14 10 18 8 14 15 19 15 8 15 16 17 16 25 14 20 40 37 38 39 40 40 38 38 38 36 35 40
6 2 2 3 4 8 11 5 11 10 8 17 19 17 16 15 10 9 27 25 3 5 14 22 26 20 16 12 7 10 18 29 12 32 38 39 40 39 37 39 38 37 34 33
10 6 4 2 4 5 6 7 11 8 2 17 17 13 15 14 6 7 22 23 9 16 24 19 31 22 24 20 17 13 5 5 24 30 34 38 40 39 39 41 38 37 36 35
5 2 6 7 5 5 14 14 4 7 6 15 14 11 11 7 3 14 17 19 20 17 20 22 21 18 22 26 22 13 9 16 36 30 32 36 39 39 40 37 38 36 34 33
3 4 3 4 6 5 20 10 7 8 14 13 12 13 10 6 12 14 15 19 14 14 22 24 21 20 22 28 29 24 17 25 20 18 30 34 37 38 36 38 35 35 33 32
1 2 3 2 5 11 10 11 11 13 12 15 15 15 13 7 6 11 13 13 12 14 16 21 21 21 23 25 25 22 26 28 27 22 27 34 34 37 35 37 35 33 32 31
2 3 2 4 3 13 14 10 13 16 15 16 17 18 18 15 5 7 9 11 9 15 13 16 17 18 19 25 25 24 27 28 27 27 21 32 34 31 33 34 35 34 33 32
3 4 3 5 9 15 3 14 15 16 17 17 17 21 23 15 8 7 5 7 8 11 17 14 16 17 19 23 24 25 26 25 27 30 20 29 30 33 30 29 33 33 35 35
3 4 2 3 6 8 11 12 16 15 16 17 21 26 14 13 10 7 5 7 6 12 14 14 14 17 20 24 24 25 26 23 25 26 10 19 23 25 26 28 25 35 35 36

GFSCGP_925_spd_078.txt.gz
Wind_Speed
4 3 4 8 6 6 3 2 8 14 12 5 7 18 22 12 15 14 12 15 12 13 16 26 31 30 36 39 39 36 32 28 27 25 20 15 22 22 20 19 17 14 13 12
4 4 7 5 6 7 6 6 10 11 5 3 9 14 22 17 17 20 20 23 19 16 14 20 28 28 35 38 41 38 36 32 27 26 23 17 19 22 20 22 18 15 12 11
6 9 8 7 7 7 6 5 8 10 10 0 14 6 12 11 9 12 9 8 13 22 19 17 29 31 36 37 40 42 39 34 28 28 25 19 19 20 21 22 20 18 16 11
5 14 9 9 10 5 6 8 10 8 3 2 2 4 10 15 13 14 13 12 14 18 20 17 30 32 32 36 40 43 42 38 33 30 28 27 22 21 19 25 22 21 19 17
6 6 7 10 8 9 11 12 8 2 3 5 3 4 2 16 12 18 18 13 12 16 19 20 24 37 38 38 39 43 43 41 37 33 31 30 25 23 22 24 26 22 20 17
6 4 4 5 5 4 11 4 5 5 4 2 3 4 2 15 24 15 13 17 17 18 15 10 24 35 36 36 38 41 43 43 42 38 34 36 31 23 21 25 29 25 24 21
6 5 4 5 4 6 3 6 3 4 2 6 2 4 8 18 13 22 22 25 20 19 16 18 13 27 33 36 36 38 41 39 43 42 39 37 35 29 25 26 32 29 26 23
3 6 8 7 4 3 4 7 6 6 3 2 5 3 6 11 10 23 25 24 19 16 19 18 20 27 33 38 38 38 39 38 43 45 42 38 38 34 29 23 30 34 30 27
4 5 2 10 4 1 7 1 6 4 3 4 3 7 9 11 6 12 20 18 22 15 11 16 20 31 36 39 42 42 39 39 42 45 45 41 39 38 35 27 21 34 33 30
5 4 4 7 7 9 7 4 4 3 2 2 4 2 6 9 13 8 5 15 21 15 11 16 17 33 33 38 40 40 42 42 44 43 43 44 42 40 38 35 24 26 32 31
5 3 7 4 5 4 7 6 5 0 4 5 3 5 1 4 6 3 7 11 26 23 17 19 17 34 33 32 35 38 38 39 39 42 42 41 43 43 39 37 33 24 31 30
4 3 3 5 4 5 4 6 5 4 7 1 5 4 3 7 5 9 13 19 12 25 18 21 19 32 36 39 37 37 37 39 41 42 40 42 43 46 43 41 38 34 27 29
5 4 4 10 6 8 6 7 4 3 2 1 5 4 4 7 11 13 19 26 10 18 15 9 16 16 12 17 26 36 37 39 38 39 38 37 39 41 45 43 42 36 33 29
6 4 5 3 2 5 8 14 8 4 2 8 5 8 10 11 11 13 18 23 17 14 9 7 5 5 4 4 10 12 32 37 38 37 38 37 38 40 43 43 42 41 39 34
5 2 4 3 6 10 13 13 12 7 4 2 10 12 6 8 7 8 13 14 15 12 9 6 5 4 14 12 20 29 20 35 38 38 36 37 37 37 39 40 42 46 42 41
6 1 4 2 4 9 12 15 11 12 9 5 10 11 6 3 10 16 9 11 12 18 16 5 7 12 20 23 13 24 19 29 35 35 35 40 34 35 37 40 40 41 48 43
1 2 3 2 4 5 7 4 3 8 7 3 5 6 7 9 10 13 12 10 8 9 10 8 8 16 22 31 16 7 7 8 28 32 34 33 39 37 38 36 38 38 40 42
4 5 3 2 3 1 6 7 7 9 12 10 7 13 12 11 3 12 16 19 7 5 6 9 11 18 31 13 10 6 13 9 13 16 31 35 35 38 36 36 37 37 37 39
2 4 2 3 3 6 10 9 5 3 5 12 12 13 14 19 5 8 19 18 14 12 7 11 16 20 20 22 19 7 8 18 25 18 23 34 36 36 37 38 37 36 33 35
5 3 4 2 2 5 2 14 15 9 5 11 11 12 14 13 5 3 16 15 15 17 16 18 17 22 24 27 22 22 21 8 8 17 13 13 35 40 38 40 38 36 36 35
4 3 1 5 5 5 8 17 14 6 1 14 9 7 11 7 3 10 12 11 12 10 13 19 19 17 17 21 20 19 21 26 28 23 23 23 29 40 42 39 35 35 34 32
1 1 2 2 4 5 11 6 5 7 9 10 8 8 10 12 16 14 11 13 14 13 17 18 16 13 18 23 19 17 17 25 28 29 23 27 33 40 38 36 35 35 33 33
2 3 2 5 4 1 2 5 4 6 13 14 15 13 13 12 11 17 13 11 13 11 10 10 12 5 17 24 21 18 21 26 30 28 23 25 25 37 38 36 35 34 33 32
2 2 2 4 3 5 13 7 9 11 13 14 16 17 13 16 13 16 16 10 11 7 9 11 11 11 12 20 21 20 23 25 26 30 28 29 23 30 34 33 34 34 33 33
4 1 4 6 10 8 5 8 12 14 13 14 13 15 18 17 20 15 16 11 11 2 6 9 11 10 10 22 24 19 22 25 20 22 24 28 23 28 30 32 36 37 39 39
5 6 5 5 5 5 8 6 14 13 15 13 13 14 17 22 15 11 14 16 12 7 3 6 6 11 16 18 20 22 22 25 25 22 21 25 22 19 28 30 29 38 38 40

GFSCGP_925_spd_084.txt.gz
Wind_Speed
3 4 6 6 6 4 3 5 3 2 4 3 7 9 4 9 6 11 12 14 18 16 18 25 28 31 30 27 32 33 33 30 27 23 19 18 18 14 14 14 12 12 8 8
5 4 8 7 5 4 3 1 1 3 2 4 3 3 4 6 6 10 15 13 15 14 13 19 24 27 30 33 37 35 35 31 29 26 23 21 19 15 12 13 10 9 9 8
7 6 7 6 5 5 2 4 2 3 4 4 2 4 2 1 2 4 7 12 8 14 16 16 23 27 29 29 33 39 38 36 33 28 26 20 17 13 15 14 13 11 8 7
4 2 7 4 4 5 1 7 5 3 3 2 2 3 2 3 4 4 5 8 8 8 11 16 23 26 29 34 38 41 40 38 37 31 30 26 23 18 20 17 15 11 9 8
6 7 5 3 5 7 7 4 6 4 3 3 3 4 4 2 7 13 13 10 9 7 8 15 23 29 33 34 35 37 41 39 39 36 32 28 23 22 20 18 16 15 12 11
2 0 3 6 4 8 4 5 7 5 3 2 5 5 4 5 7 11 11 14 12 10 9 9 23 29 30 32 33 35 37 43 43 40 37 33 29 23 20 18 16 16 14 12
5 4 5 3 3 3 5 6 2 2 2 5 3 4 5 6 9 11 12 14 17 15 10 12 14 25 28 30 32 33 36 36 43 41 39 37 34 29 26 22 18 17 18 16
4 4 7 8 3 4 3 7 5 5 5 3 4 4 1 5 9 8 6 6 11 12 12 13 16 25 30 32 32 33 35 39 40 43 40 38 37 33 29 24 22 19 19 19
4 2 5 5 7 2 3 4 3 7 3 4 2 3 3 9 16 15 13 4 4 10 15 16 21 25 28 32 35 37 37 38 40 46 43 40 36 36 34 28 23 21 20 22
1 4 3 6 5 7 7 1 3 3 4 3 3 3 4 13 16 15 15 9 8 6 8 12 16 26 31 35 37 37 39 44 46 45 45 43 39 36 36 33 28 24 22 20
2 4 4 4 7 4 5 5 6 5 3 5 4 2 5 6 7 11 14 15 11 9 10 11 16 27 32 33 35 38 36 37 37 41 41 42 42 38 34 35 33 30 25 21
4 4 5 3 5 5 5 3 3 4 3 1 3 3 4 8 10 9 14 16 15 12 11 10 13 20 24 29 32 36 37 35 39 40 39 43 45 42 39 35 35 34 31 26
1 3 4 4 6 5 6 5 4 4 3 1 4 4 4 8 13 14 14 17 13 14 15 13 5 5 20 24 28 30 33 35 34 32 35 33 36 40 43 41 37 36 35 31
6 3 3 6 4 3 4 2 3 5 3 3 4 2 7 13 12 14 17 17 15 15 13 11 10 10 12 7 24 27 27 32 32 31 31 31 35 40 42 43 42 39 37 36
4 4 2 4 4 3 3 3 2 2 4 4 4 3 4 4 7 9 11 16 18 18 16 14 11 9 13 8 4 20 25 30 35 34 35 38 38 37 38 37 41 42 40 38
5 2 2 3 4 3 3 5 6 5 3 6 6 3 6 3 5 13 12 14 16 17 18 15 14 16 17 16 4 4 18 27 31 34 36 36 40 41 39 39 39 41 41 41
3 4 3 3 2 3 3 2 1 1 3 2 4 2 5 7 10 9 9 12 15 16 17 16 15 19 18 20 18 3 7 14 23 31 31 35 37 35 36 35 37 38 40 40
3 3 2 2 2 3 4 4 4 2 3 3 1 4 4 5 10 8 3 9 15 17 18 14 17 21 23 20 24 19 11 4 2 14 23 29 31 32 31 31 34 39 37 38
3 4 3 3 1 3 3 4 4 4 1 9 6 10 9 12 10 2 7 13 14 14 20 22 19 17 22 19 18 21 21 17 15 14 4 8 20 27 29 35 34 36 32 34
5 6 4 1 2 2 2 3 4 2 4 6 8 10 12 10 3 3 14 17 20 23 24 26 28 20 15 18 13 18 16 16 18 15 12 8 5 6 29 32 32 33 36 35
3 3 4 3 1 4 3 5 4 2 3 3 2 4 8 6 4 14 18 22 19 21 25 28 27 23 19 14 11 8 11 15 12 13 12 12 9 11 13 24 34 32 32 32
3 5 3 2 3 6 2 3 3 2 2 5 7 8 12 14 14 13 17 17 23 23 27 26 26 27 24 20 13 7 9 11 13 14 13 14 13 13 12 17 18 31 31 30
2 5 4 6 5 1 3 4 3 2 4 7 10 12 13 15 15 13 15 18 23 25 26 26 23 25 26 23 13 14 5 6 8 10 12 15 15 13 13 13 18 22 28 29
2 3 2 4 3 7 8 5 5 4 4 8 9 11 12 16 16 17 15 17 24 24 27 27 25 26 26 21 17 12 13 10 10 10 12 12 15 16 17 17 14 24 28 27
4 7 6 5 6 4 6 7 8 6 6 8 10 11 12 15 16 16 15 17 26 31 27 25 25 25 28 24 21 14 13 16 15 13 14 15 14 17 20 20 18 21 29 34
5 7 5 5 7 5 4 5 5 6 7 9 9 11 17 17 14 20 16 22 29 31 31 22 25 27 26 24 22 19 15 16 14 15 17 20 22 26 23 21 27 23 20 28

GFSCGP_925_spd_087.txt.gz
Wind_Speed
7 7 13 13 7 2 6 7 9 3 3 4 7 7 6 12 12 14 17 18 18 19 22 21 20 18 17 17 18 20 21 20 19 15 13 11 12 11 9 9 8 8 5 6
7 13 10 9 7 5 7 7 5 2 3 3 1 1 2 7 12 15 18 19 19 18 17 20 20 19 20 22 21 21 21 23 22 17 13 9 10 9 8 9 9 8 8 6
10 6 10 10 9 9 5 8 5 3 1 3 1 4 2 2 6 11 16 16 18 19 19 17 21 22 22 21 23 24 25 25 25 19 15 12 9 9 8 10 9 9 7 6
7 6 13 11 10 10 10 7 5 3 2 4 3 5 2 1 8 11 15 18 18 20 19 18 22 24 26 27 25 24 23 23 24 24 17 15 13 12 11 13 10 10 8 6
5 12 15 12 12 9 4 7 7 3 3 3 3 4 3 2 4 10 13 16 20 20 21 21 26 27 28 27 28 28 28 24 24 25 23 19 16 13 9 11 12 13 10 9
3 2 6 11 7 12 11 8 6 4 2 6 4 4 6 7 13 14 9 16 17 20 20 20 25 25 26 27 28 27 25 29 28 28 27 25 20 16 12 13 13 13 11 9
3 2 2 3 8 6 7 9 5 6 5 6 2 4 6 9 14 15 9 10 17 18 19 18 18 24 26 27 28 28 28 28 28 28 27 28 25 22 19 17 15 14 14 12
5 7 5 7 2 5 14 12 5 8 9 8 2 8 5 8 13 16 16 7 6 15 15 17 21 26 27 27 27 29 29 30 28 29 32 32 31 23 21 20 16 14 13 13
4 4 3 8 7 2 6 8 2 5 1 8 6 5 6 13 17 19 17 15 13 6 11 17 21 25 28 30 32 32 30 31 30 30 35 32 31 32 24 23 23 17 17 12
2 6 6 5 1 11 2 5 6 2 8 10 5 5 3 12 15 16 18 17 15 13 10 9 18 26 28 33 33 33 34 33 35 33 31 31 32 34 32 26 26 22 20 19
2 1 3 2 8 7 1 3 4 2 2 6 8 4 4 6 9 12 14 16 17 16 14 11 14 21 26 29 31 33 34 33 31 30 31 30 30 28 30 27 29 27 24 22
4 4 5 5 2 4 6 3 1 7 6 2 0 5 7 7 10 11 13 15 15 16 16 15 15 9 18 23 28 31 31 31 33 33 33 31 30 28 26 30 29 30 29 25
3 3 5 2 2 1 4 4 3 2 1 4 7 6 7 9 11 12 13 15 16 17 19 18 20 17 12 13 21 27 28 29 28 27 28 30 29 27 29 29 30 27 30 28
2 4 3 1 4 3 3 1 4 3 3 7 2 11 7 11 12 12 14 14 16 18 19 17 17 20 20 14 9 20 23 25 24 26 27 27 29 31 30 32 31 31 30 28
3 4 5 7 5 2 2 2 3 3 3 2 8 5 7 9 10 10 10 12 16 18 20 18 17 20 23 25 15 8 18 20 23 25 26 27 27 26 26 27 29 31 31 34
4 4 5 3 3 3 2 3 4 5 2 3 3 1 6 4 6 10 12 12 14 15 18 20 20 25 26 26 26 13 7 17 21 24 26 24 24 24 27 26 28 26 28 28
3 4 2 4 3 1 3 0 3 1 2 2 4 4 8 6 9 11 9 11 12 14 16 17 20 25 25 27 27 24 10 4 13 19 21 22 23 23 25 24 25 27 28 27
4 4 1 4 4 5 5 4 3 3 6 6 5 6 7 11 12 9 5 11 14 15 16 17 22 26 27 26 28 25 17 8 3 9 14 17 19 21 23 26 26 27 26 26
2 4 3 4 5 2 2 1 2 1 2 5 3 5 8 12 12 7 4 13 14 15 17 18 21 22 25 25 25 24 20 14 6 3 2 4 12 20 21 23 25 23 24 25
5 4 1 3 3 6 5 6 3 5 4 2 4 6 9 10 6 1 12 21 21 21 20 22 24 22 20 23 23 24 23 18 12 8 5 3 7 11 17 21 22 23 24 26
3 2 3 4 3 2 5 4 4 4 4 2 4 6 7 7 7 17 23 22 21 21 24 23 21 21 20 20 20 21 21 21 19 15 9 7 6 8 13 17 18 25 25 25
5 5 3 2 3 5 8 6 5 4 3 2 4 6 9 11 14 16 18 20 26 25 23 20 23 23 22 18 17 19 19 22 22 19 16 12 7 6 6 10 13 14 23 26
4 3 3 6 2 2 6 2 5 3 3 5 5 6 8 11 14 16 16 20 24 27 24 22 21 25 25 19 16 18 19 19 21 22 21 19 15 9 7 6 10 12 18 21
5 4 2 2 7 9 7 5 4 3 1 2 5 7 7 11 15 19 16 20 25 26 25 23 24 23 27 19 17 19 16 15 16 21 22 23 18 14 7 7 8 10 11 18
1 9 6 4 5 2 6 9 5 9 9 7 7 8 9 8 15 15 14 20 25 27 25 26 24 24 25 24 20 19 17 13 14 16 20 18 18 22 17 10 12 12 12 15
7 7 6 4 7 6 5 13 13 13 10 8 7 8 8 11 13 17 16 20 22 25 27 29 25 24 25 22 22 17 15 11 13 16 15 16 17 20 19 15 14 19 19 20

GFSCGP_925_spd_093.txt.gz
Wind_Speed
17 13 17 20 21 20 17 20 15 12 15 12 10 13 21 16 13 14 12 14 13 17 19 21 21 20 19 18 18 16 15 15 15 14 13 11 10 8 5 3 6 6 5 6
13 18 16 15 16 19 15 21 14 13 9 9 16 19 16 18 21 16 15 16 17 16 18 21 20 20 20 19 19 18 17 16 15 13 13 9 12 10 7 6 7 7 6 6
15 15 16 13 14 13 17 16 13 15 8 16 14 14 11 12 11 23 19 17 18 16 19 17 22 23 20 20 20 21 20 18 17 13 9 7 3 9 8 7 7 8 8 7
16 10 17 13 15 17 18 16 10 12 15 12 15 9 19 20 16 11 15 18 16 18 20 18 23 22 22 21 21 20 20 19 18 14 13 10 10 12 13 11 10 10 8 8
17 12 13 16 17 16 11 15 3 14 14 11 16 8 8 21 18 16 17 16 16 22 19 20 23 22 22 21 22 21 21 20 19 18 10 11 13 11 9 6 11 8 10 8
16 11 13 18 16 16 5 13 9 9 14 14 12 14 12 8 12 4 15 17 17 19 16 19 26 25 23 23 23 22 21 21 20 19 16 11 8 9 7 14 9 8 9 12
13 10 17 13 17 14 11 15 11 11 11 11 16 16 11 10 7 2 11 19 15 20 20 14 16 23 23 24 24 24 23 22 22 21 19 18 12 8 7 3 5 7 10 13
12 14 12 13 17 12 17 20 12 12 13 14 17 9 9 10 8 7 7 3 19 15 20 17 18 20 23 23 24 23 27 24 22 22 22 19 17 15 12 11 12 12 11 13
14 11 7 6 14 5 18 20 23 12 14 14 13 19 12 12 12 11 12 7 7 15 12 17 16 23 23 23 23 24 23 26 24 23 23 21 20 19 15 10 12 13 13 13
6 11 13 10 8 13 13 15 19 9 13 18 16 17 13 14 13 12 13 20 19 20 14 9 10 6 20 25 25 23 24 23 23 22 23 22 22 20 18 15 14 13 11 14
10 5 11 6 15 16 12 13 20 13 15 13 11 10 19 14 14 14 20 16 14 15 15 16 13 9 16 14 17 22 23 22 22 22 22 22 21 21 19 20 18 16 15 13
4 7 12 17 5 6 11 13 16 11 19 13 4 10 14 16 16 20 17 12 14 15 16 14 17 20 22 23 22 10 23 23 22 21 21 22 21 20 21 21 21 20 18 18
2 9 6 6 8 9 11 10 12 18 17 14 15 12 10 15 14 16 17 15 12 13 14 13 18 20 20 19 21 24 17 17 20 21 21 22 22 21 22 22 21 21 21 21
4 12 9 4 9 15 18 7 12 13 11 12 8 24 19 16 16 14 15 14 13 13 13 13 15 19 20 21 22 24 27 30 17 14 22 21 21 21 21 21 21 22 22 22
5 9 5 3 6 7 10 14 7 15 16 9 20 20 17 16 13 12 14 12 12 13 14 14 14 16 20 22 25 24 23 22 23 17 7 17 19 19 20 20 20 21 22 23
3 4 9 7 1 1 6 7 5 6 2 7 23 17 15 11 12 10 10 11 11 12 12 13 14 17 17 20 20 22 23 22 20 24 18 10 8 14 18 19 20 20 22 23
5 5 7 12 6 6 11 13 11 9 5 9 13 18 12 11 8 8 9 10 10 10 11 11 12 16 16 17 19 20 19 21 20 21 23 13 11 10 13 15 17 19 20 22
5 9 9 11 5 11 3 6 3 8 9 6 14 12 12 9 7 11 8 8 8 9 9 10 12 13 14 15 16 16 16 17 20 21 20 20 17 15 12 13 14 16 19 20
4 7 7 11 10 5 7 5 6 11 11 2 12 9 9 7 8 10 8 6 6 7 9 10 11 12 12 13 15 15 15 14 14 16 18 20 19 18 16 15 13 18 19 19
5 7 6 7 11 15 14 11 4 1 11 8 6 8 6 6 10 11 3 5 6 7 8 10 12 12 11 12 14 14 14 14 13 15 14 15 14 14 14 16 16 14 19 20
7 7 10 10 8 4 11 8 5 9 6 10 7 7 3 2 10 7 6 7 9 9 9 10 10 11 12 13 13 14 14 13 14 15 15 14 14 16 14 16 18 14 16 16
7 5 6 9 10 10 12 7 5 9 10 10 7 6 7 6 3 5 5 7 9 10 11 12 12 11 12 13 15 15 14 15 16 15 16 15 14 14 14 15 16 16 13 13
5 2 4 3 5 7 8 6 9 8 10 7 7 7 4 2 3 3 4 5 8 9 11 12 13 14 13 11 13 18 19 17 18 19 16 16 15 14 12 14 13 16 14 13
7 2 2 4 8 4 8 6 4 4 8 7 5 5 3 2 3 3 4 6 7 10 11 14 13 13 14 16 18 21 22 22 20 19 20 17 17 16 15 13 13 14 16 13
6 7 8 9 4 6 8 8 7 7 7 6 5 3 2 2 3 5 5 5 6 8 9 10 13 15 15 15 16 18 21 22 23 21 21 20 18 19 17 16 14 15 17 17
9 9 7 5 7 10 8 12 11 10 8 5 4 4 2 2 3 6 5 6 7 7 9 9 12 14 17 18 19 17 18 21 24 23 22 21 21 16 19 20 20 18 19 19

GFSCGP_925_spd_096.txt.gz
Wind_Speed
14 12 16 20 19 20 18 18 17 13 16 13 13 11 11 14 14 16 16 16 15 15 21 23 23 25 22 24 20 16 17 20 14 12 9 9 15 7 7 10 12 10 11 8
12 17 17 19 19 21 23 19 7 4 17 18 21 15 16 20 18 17 16 11 13 8 8 21 23 23 24 25 22 19 18 21 17 14 12 5 12 12 10 6 7 9 10 9
19 14 20 17 18 20 23 18 16 13 22 17 23 16 17 16 19 15 15 15 17 14 11 19 22 24 26 26 25 21 20 22 20 16 10 7 3 6 9 6 10 13 11 7
19 18 19 18 18 15 17 19 14 23 17 12 20 12 32 28 16 5 4 17 17 20 20 19 23 24 27 27 26 24 21 22 21 12 12 8 15 11 13 16 17 15 12 9
18 17 12 18 16 14 15 17 13 14 18 14 16 10 12 19 23 22 21 20 21 21 16 20 21 26 29 30 28 28 24 23 20 16 12 12 8 10 9 12 8 9 13 10
15 15 13 16 14 12 21 14 15 8 12 12 10 15 13 10 4 26 33 24 19 14 15 17 26 26 27 31 30 29 27 25 22 21 15 15 16 11 12 12 10 13 11 13
14 18 13 10 15 18 18 15 9 9 10 10 15 9 7 17 6 19 3 22 22 8 14 23 22 23 24 30 32 32 29 26 24 24 19 16 14 11 18 7 11 15 13 13
13 13 11 12 21 16 16 16 9 14 11 11 18 12 9 15 6 13 22 15 28 27 24 22 22 27 12 25 34 35 35 30 28 25 23 20 17 12 12 15 14 11 9 7
12 17 18 18 16 15 19 17 18 16 19 15 9 12 9 10 12 10 23 19 19 3 22 12 15 26 31 37 32 37 39 36 33 30 25 23 21 18 15 15 12 8 3 7
9 15 17 9 9 8 14 14 17 14 13 14 12 18 15 16 17 18 20 19 17 13 11 6 7 5 3 22 31 32 38 37 36 32 28 25 23 22 19 10 13 11 11 13
12 8 9 11 13 13 11 13 13 17 14 9 9 1 16 17 16 16 18 15 13 14 13 14 12 4 19 16 11 17 36 33 33 31 29 28 26 24 22 18 17 18 11 12
13 8 11 13 11 16 18 17 16 11 18 6 7 2 13 13 17 15 14 15 14 13 14 13 17 19 19 2 27 10 19 2 29 27 27 29 29 27 25 22 20 19 19 18
9 7 5 13 5 5 8 16 16 18 17 6 10 6 5 10 16 16 14 12 13 13 15 15 18 20 19 20 16 17 16 14 14 7 27 27 28 27 26 25 23 21 21 21
5 11 8 6 11 10 18 17 13 15 11 15 15 18 19 19 16 17 15 13 14 14 15 14 15 18 20 19 18 19 17 21 23 16 16 18 27 27 26 25 25 23 21 22
4 9 8 3 10 15 14 19 11 11 14 11 13 20 14 16 16 14 15 12 12 13 14 14 14 16 20 22 25 26 27 29 24 21 10 17 7 18 23 23 22 23 22 21
3 6 4 7 4 10 14 17 12 11 12 16 11 17 14 15 18 11 13 11 11 12 12 13 13 17 19 22 23 22 24 24 21 17 18 20 17 9 11 14 15 16 18 22
3 6 3 10 5 5 8 7 4 4 6 16 16 12 16 16 15 12 11 10 10 10 10 11 12 15 17 19 21 22 21 21 24 25 24 22 23 18 13 5 8 10 15 18
4 7 8 9 7 11 8 8 10 10 6 15 15 16 16 15 14 13 10 8 8 8 8 9 12 13 14 15 17 17 19 17 19 21 26 30 26 21 16 11 8 6 11 18
5 7 7 11 11 11 8 3 5 8 13 15 15 15 14 13 17 12 9 7 6 6 7 8 10 10 10 13 14 15 15 17 18 19 22 24 25 24 20 18 15 13 14 15
5 6 8 6 14 13 4 11 6 3 11 9 16 11 11 8 10 10 9 6 6 6 6 7 8 8 9 11 13 13 14 15 16 18 17 17 18 19 17 17 17 15 14 16
4 5 9 8 7 6 9 5 2 8 4 13 8 11 7 4 8 12 9 8 6 7 8 8 9 8 9 11 12 13 13 13 14 16 16 15 15 16 16 16 16 15 17 16
4 5 6 8 10 8 10 6 4 9 11 10 10 9 8 9 9 8 7 6 7 6 8 9 9 10 11 12 13 13 14 18 18 16 16 17 14 14 14 15 17 17 15 16
3 6 5 6 5 6 7 14 11 12 12 9 11 7 8 7 6 7 5 5 5 6 7 8 9 9 12 16 16 16 19 21 21 21 19 18 19 14 15 15 19 18 17 17
4 4 2 3 8 6 9 6 8 11 12 8 10 10 6 6 6 5 4 5 3 5 4 6 7 9 10 12 13 15 17 21 22 20 20 19 19 19 17 17 15 17 17 17
6 1 4 7 3 4 6 6 6 6 10 10 8 9 7 5 6 3 4 3 1 2 4 5 7 8 9 12 12 14 18 18 19 21 21 22 18 21 20 16 19 16 16 19
6 9 5 5 5 8 6 11 10 9 10 10 10 8 7 6 6 5 3 2 2 1 4 4 7 8 10 11 13 15 17 17 16 18 18 20 23 24 24 20 17 20 23 23

GFSCGP_925_spd_102.txt.gz
Wind_Speed
4 4 5 8 5 7 3 5 4 6 8 7 7 14 20 17 14 14 14 11 10 17 23 29 33 35 36 33 32 32 25 20 23 17 12 14 15 13 15 14 14 13 13 13
5 5 8 7 7 6 5 3 5 8 8 8 6 14 19 19 21 17 14 10 14 13 14 22 28 33 33 34 31 31 26 21 18 16 14 16 15 10 15 13 13 13 11 12
6 7 9 6 7 8 8 6 9 6 9 4 6 2 4 3 10 12 12 9 16 18 17 15 22 30 31 31 30 35 29 21 20 18 12 15 14 14 14 15 12 13 12 14
6 6 5 7 8 8 7 9 13 18 8 5 6 4 5 7 9 13 15 11 15 14 16 17 21 25 28 32 31 35 28 22 19 17 10 16 18 14 13 15 13 12 13 12
8 6 7 7 13 8 10 6 10 17 5 8 2 3 2 9 9 15 8 12 12 17 17 19 22 28 28 34 33 35 30 23 20 17 12 13 14 12 12 11 14 14 15 13
9 6 7 9 9 10 7 4 8 7 4 2 10 6 4 9 17 21 11 10 13 12 15 18 26 29 29 31 33 35 33 26 23 20 12 14 13 14 13 13 16 17 16 14
5 7 10 6 7 4 5 6 1 2 1 6 13 4 6 11 16 22 17 11 9 10 5 11 16 25 26 28 29 33 34 30 25 24 16 16 14 14 14 16 20 18 18 16
3 6 5 3 8 6 3 8 5 5 5 2 10 6 6 12 9 5 7 8 7 9 8 8 9 18 28 30 31 29 34 31 27 25 20 18 14 14 17 19 21 18 19 19
3 5 5 3 5 9 3 2 6 2 1 4 4 1 7 9 4 7 7 8 10 10 14 7 8 22 16 11 13 24 34 32 29 30 24 19 18 17 17 18 20 18 18 17
5 3 2 5 1 3 6 3 3 4 1 3 3 4 2 4 6 6 7 7 9 13 12 11 8 17 26 25 16 4 16 24 26 29 29 27 24 22 19 15 18 18 18 20
4 2 7 3 1 6 4 3 5 4 4 4 4 2 3 9 10 8 9 8 8 9 9 7 3 16 23 20 13 14 4 15 19 21 26 30 30 26 22 20 17 19 19 18
1 4 1 6 5 4 5 5 5 5 3 3 4 2 6 13 12 10 9 13 10 11 9 7 9 10 6 20 20 22 19 7 6 12 22 24 28 29 28 26 22 16 22 22
5 4 3 7 7 8 5 4 5 5 2 4 5 3 7 14 11 8 13 11 9 10 11 10 13 17 14 10 15 24 24 16 5 3 4 10 18 23 25 26 25 21 19 22
3 4 4 3 5 3 5 9 1 6 3 3 3 16 11 14 18 14 7 10 10 9 12 11 13 17 14 13 12 15 11 13 9 7 10 9 12 9 17 25 24 25 23 23
4 3 4 4 7 2 5 10 7 3 5 5 14 17 13 15 15 13 19 12 13 13 13 13 10 11 13 15 14 12 10 6 9 13 16 20 14 14 11 11 14 16 23 24
6 3 6 7 6 7 5 15 6 7 9 12 17 12 16 18 16 15 15 15 13 13 12 11 13 16 13 16 15 15 16 13 10 9 5 8 12 18 10 21 15 9 12 20
4 3 3 3 7 5 6 6 6 3 3 17 11 20 23 20 19 15 15 13 11 12 12 9 10 16 21 16 17 19 18 18 18 16 15 14 9 4 6 11 13 15 16 16
3 3 3 3 5 3 5 6 5 10 6 18 21 19 17 18 13 11 10 14 11 11 11 10 18 21 21 21 17 16 16 18 18 18 19 19 16 11 6 4 3 4 9 12
5 4 2 3 2 4 7 8 3 7 5 17 21 19 20 21 20 10 9 11 12 9 16 21 24 22 20 21 20 20 19 19 20 21 20 18 18 15 12 12 11 9 8 8
6 6 4 2 2 3 2 3 10 7 2 3 19 21 24 19 12 7 10 16 17 22 24 26 25 24 22 19 17 17 17 16 18 18 17 16 17 15 15 14 13 13 11 7
4 3 3 0 2 1 4 4 2 4 7 7 13 17 11 6 6 11 15 16 22 25 27 27 25 23 18 15 16 18 15 16 13 11 10 12 13 14 13 13 14 15 14 13
2 1 0 0 2 2 5 4 5 4 4 8 9 8 14 18 17 14 13 13 21 22 25 25 26 22 18 15 12 16 17 12 10 9 10 11 15 15 14 15 14 15 15 16
1 5 4 4 4 5 4 6 4 4 8 5 14 12 18 17 15 14 11 12 18 24 23 20 21 21 19 17 14 15 13 14 14 12 13 14 14 15 16 18 20 16 17 17
4 1 3 4 5 3 4 4 6 9 10 7 6 7 10 13 13 12 11 14 16 21 21 19 17 16 14 12 11 11 11 10 12 14 16 15 15 16 17 17 18 19 21 25
4 2 3 1 4 3 3 3 6 7 8 9 8 8 8 12 11 12 9 16 20 21 18 15 13 11 9 9 10 11 11 12 13 13 16 18 17 18 19 17 17 17 15 17
2 1 3 4 3 4 7 6 8 8 7 9 8 7 10 18 8 17 15 22 24 21 18 16 12 10 7 6 7 8 9 10 11 13 15 15 15 19 21 23 25 19 20 21

GFSCGP_925_spd_105.txt.gz
Wind_Speed
4 3 6 8 5 5 4 2 9 5 8 6 5 6 10 15 8 7 5 8 17 17 18 25 28 28 27 29 27 25 25 22 20 17 17 14 13 12 12 13 14 12 11 12
5 6 8 6 7 5 3 4 6 8 7 7 10 9 8 14 9 7 6 7 16 14 15 21 24 24 29 32 31 28 26 24 22 18 14 12 14 10 13 11 11 10 11 10
5 4 5 4 2 5 2 5 6 8 7 5 8 2 8 10 9 9 9 7 16 16 17 16 22 27 27 31 36 34 28 23 23 18 12 10 11 6 13 12 12 11 10 9
4 6 4 3 4 6 2 7 8 14 10 5 7 3 5 12 13 11 11 11 16 17 15 17 23 24 28 34 36 34 31 24 23 21 15 15 17 14 14 15 13 12 10 10
6 5 6 5 8 6 9 6 13 13 4 5 4 2 2 11 11 10 12 13 17 21 21 20 26 30 31 31 36 35 32 26 24 22 16 12 19 16 14 14 12 12 12 11
6 3 5 8 4 10 2 9 11 5 3 2 7 6 5 12 17 23 19 14 18 21 21 22 28 29 26 29 33 35 34 28 23 22 18 15 16 16 15 13 14 14 13 13
6 5 5 5 4 1 4 7 2 3 1 5 5 2 4 12 18 25 24 12 15 15 15 14 13 22 25 27 30 33 34 30 24 23 17 15 13 15 16 15 16 17 16 16
3 3 7 3 10 8 7 9 6 6 5 3 5 5 3 7 11 6 14 10 10 12 14 14 21 22 22 25 31 33 35 31 25 23 21 15 14 14 14 15 18 17 18 18
3 5 4 4 5 10 4 4 6 7 2 4 3 1 4 9 9 10 14 13 9 10 13 12 9 4 12 18 17 18 20 27 25 23 22 19 16 14 13 13 16 15 15 17
3 2 1 5 4 4 7 6 3 3 5 3 3 1 2 3 6 6 10 11 10 9 10 12 14 22 20 19 18 16 14 23 24 21 22 21 18 16 13 13 14 18 15 16
3 3 6 1 3 6 3 2 6 5 3 5 3 4 4 3 8 11 10 11 11 9 8 9 16 15 18 22 20 14 12 4 11 18 20 20 19 17 16 15 12 13 13 17
2 4 2 3 4 4 1 5 5 5 3 3 4 3 4 9 9 11 11 11 10 8 6 7 9 8 8 12 7 14 10 12 9 6 14 17 20 18 19 20 18 15 16 17
2 3 2 6 6 7 7 4 4 5 3 4 5 3 4 10 11 11 13 11 9 7 9 7 6 7 8 14 12 11 3 5 3 6 7 4 3 6 11 19 22 22 22 19
4 3 3 4 5 2 3 4 3 4 4 6 3 10 8 10 13 12 13 13 11 8 9 9 6 9 11 9 6 5 4 8 7 9 6 11 3 5 6 7 14 16 15 20
4 4 1 2 3 3 1 3 3 3 4 5 15 16 15 12 11 8 10 19 14 10 8 6 7 11 15 17 13 9 8 4 12 13 7 9 15 13 11 10 10 9 9 13
4 2 0 6 6 6 4 8 9 5 6 7 19 13 6 13 11 11 13 14 14 11 10 8 8 12 15 16 19 18 14 10 16 17 12 11 14 6 11 11 10 12 8 11
4 2 3 1 4 5 6 8 6 4 2 21 16 11 14 15 13 15 14 15 13 11 9 9 9 12 19 20 20 24 22 21 19 18 12 1 6 11 13 12 13 11 9 14
3 4 3 1 4 4 4 7 9 11 3 5 15 18 16 15 8 8 7 14 14 13 10 8 11 17 19 22 24 25 25 27 26 26 22 18 15 11 5 3 4 5 7 10
5 3 3 3 2 1 6 8 4 3 7 7 22 18 16 17 17 8 6 8 7 8 15 19 20 21 21 19 17 20 22 22 23 23 20 18 17 16 13 11 9 7 5 4
5 7 4 2 2 4 6 8 4 5 3 4 15 17 22 19 10 6 7 10 13 19 17 20 25 21 18 14 13 16 18 19 20 17 15 14 13 12 12 11 12 11 8 9
4 4 3 1 1 3 3 7 8 5 7 12 13 20 17 10 5 8 9 12 18 20 22 22 21 21 15 11 10 15 15 18 14 12 11 12 14 13 12 11 11 11 11 13
2 3 1 1 3 2 5 5 5 3 4 13 14 19 9 13 15 13 12 12 17 19 18 21 22 18 15 12 9 12 15 13 12 12 12 12 12 13 13 13 14 15 14 14
1 4 4 4 5 5 4 2 3 2 3 5 12 7 14 19 16 14 11 13 17 19 19 19 20 18 14 12 12 13 10 8 10 10 13 13 12 12 12 13 15 15 15 17
2 2 3 3 4 3 4 4 5 5 8 9 12 14 16 18 16 13 10 13 15 20 21 19 17 14 11 8 9 12 10 9 9 12 13 14 15 14 13 12 13 14 16 17
3 3 3 1 3 3 2 2 5 5 8 13 10 13 12 14 12 11 9 13 17 22 21 18 16 14 11 9 9 8 8 8 11 12 13 13 14 16 16 16 15 12 11 12
0 4 3 4 3 3 5 3 3 7 7 9 10 7 9 16 11 17 14 18 23 23 21 19 17 16 15 11 9 8 6 7 10 12 13 15 15 16 16 18 17 13 14 14

GFSCGP_925_spd_108.txt.gz
Wind_Speed
3 4 6 5 5 5 3 4 8 5 2 5 2 5 4 8 7 5 6 12 13 14 17 21 24 25 25 23 24 23 21 20 18 16 14 12 12 12 11 10 10 11 8 9
5 6 7 6 4 5 5 5 5 5 2 4 4 5 7 12 11 4 6 8 14 8 10 16 21 23 26 27 27 23 22 24 21 16 16 10 13 11 12 12 12 11 10 10
6 3 10 5 5 5 2 6 4 6 5 6 8 4 4 7 8 6 5 7 10 15 13 12 19 22 25 29 31 27 26 24 22 17 15 10 11 7 10 11 13 12 12 11
3 3 8 6 4 5 4 7 10 14 5 4 2 3 4 10 13 10 7 7 10 13 15 15 20 21 28 33 31 29 27 25 22 20 15 12 12 10 9 13 11 11 11 11
5 6 5 4 6 6 6 7 15 11 5 4 6 2 3 10 12 13 8 8 14 15 17 16 23 29 31 32 33 32 28 24 24 23 16 14 13 10 8 12 12 11 10 9
5 1 5 8 5 10 5 9 9 5 3 2 8 5 4 11 21 21 19 16 14 16 18 22 28 23 22 23 30 32 30 26 24 23 19 15 12 14 11 13 13 13 11 10
4 4 4 4 4 2 4 5 2 3 1 5 4 4 6 9 10 25 29 21 15 16 15 14 16 20 21 24 29 32 29 30 24 22 20 16 11 10 13 14 15 15 14 13
5 5 7 4 8 7 8 8 5 5 5 3 3 5 4 6 6 11 11 17 10 13 13 13 16 17 14 14 18 27 31 33 26 22 20 17 14 11 12 13 14 15 16 14
5 5 3 5 5 9 5 4 5 7 3 3 2 3 4 7 5 11 12 14 11 13 13 16 18 15 12 16 13 20 25 30 26 22 19 16 14 12 11 11 12 13 13 12
3 2 2 2 4 3 5 6 3 3 5 3 2 2 3 3 3 7 13 11 9 9 12 12 16 20 11 17 19 16 16 25 25 21 18 17 15 12 10 8 9 10 9 8
4 3 5 1 1 7 2 1 6 5 3 5 4 4 2 4 5 8 8 9 9 10 11 13 20 23 20 13 18 13 14 16 17 17 16 14 14 13 9 7 6 4 7 7
1 4 3 2 2 2 1 4 5 5 3 1 3 2 2 5 7 10 9 8 7 6 8 8 11 18 22 21 19 15 8 3 5 15 13 12 12 13 10 10 9 6 6 7
4 2 2 5 6 5 6 3 4 5 4 4 5 3 5 7 7 9 10 9 8 7 5 6 11 15 19 21 19 16 11 8 6 8 9 8 7 7 10 8 9 9 9 11
5 3 4 6 4 3 3 5 3 5 4 5 3 10 10 10 9 11 10 10 9 9 7 7 7 7 11 16 14 14 14 13 14 9 4 5 6 9 7 4 4 4 5 7
4 3 3 4 3 5 5 7 6 1 5 6 8 12 15 13 13 11 11 12 12 11 11 8 7 9 10 13 10 9 8 10 13 10 3 2 1 7 3 2 3 2 1 3
6 4 4 5 6 7 5 11 9 5 3 5 11 5 7 10 10 10 9 10 11 11 12 12 11 14 13 14 15 11 7 6 10 12 6 3 4 3 4 2 1 2 2 1
4 6 2 3 7 3 4 7 4 3 1 6 7 8 15 14 13 11 8 9 10 11 13 13 14 16 16 17 19 20 19 17 17 16 10 3 1 6 2 2 3 1 2 1
3 3 3 1 6 3 2 4 8 6 6 5 4 17 14 14 7 8 7 11 9 9 11 12 18 19 21 25 25 26 25 24 26 23 20 16 15 15 14 12 7 9 2 1
5 4 3 4 1 4 2 3 2 1 4 3 9 14 14 14 13 7 7 10 10 9 13 13 18 24 24 25 23 22 24 23 24 21 18 16 13 12 13 13 14 15 8 4
5 7 4 2 5 7 1 2 4 3 2 3 7 14 17 13 6 4 5 9 13 17 22 25 19 23 22 20 20 22 20 19 18 16 16 14 13 14 14 13 13 11 12 13
4 4 3 1 1 5 2 7 7 5 5 7 12 14 12 4 2 6 6 10 17 19 21 20 21 20 17 14 15 20 17 18 14 11 11 12 12 14 13 11 11 11 11 13
1 3 1 2 3 2 6 5 1 4 4 9 7 9 9 11 14 13 7 10 14 17 19 20 21 18 15 13 13 17 18 12 10 10 10 9 10 11 11 10 12 12 11 12
1 4 3 4 4 5 5 3 4 3 2 2 8 4 10 14 12 12 10 11 15 17 18 16 18 17 12 11 10 15 12 10 11 12 13 11 10 9 10 10 11 12 12 14
2 2 2 3 2 3 5 5 3 3 1 4 9 11 10 12 11 11 9 10 13 18 18 17 17 15 13 12 12 13 10 9 11 13 14 13 13 12 11 9 10 11 13 14
4 1 3 2 5 2 2 3 5 5 6 12 10 13 11 11 10 8 6 10 15 18 16 14 13 12 13 12 12 12 11 10 14 15 13 13 14 14 13 13 12 12 13 12
3 5 4 5 4 3 4 4 3 0 5 8 13 10 16 17 11 13 7 11 17 19 17 13 11 11 12 10 10 10 10 11 13 14 12 13 13 13 14 13 11 11 10 8

GFSCGP_925_spd_114.txt.gz
Wind_Speed
12 11 17 18 14 8 7 7 10 12 12 14 10 10 16 17 14 20 19 18 17 16 17 17 15 16 16 15 15 14 13 14 14 12 11 9 10 8 8 9 7 7 7 6
9 15 15 12 8 8 9 10 13 12 16 8 11 9 16 17 18 22 21 19 17 17 17 17 16 16 17 16 15 16 14 13 12 10 9 8 8 9 8 8 7 8 7 7
13 9 9 12 12 10 7 9 13 13 13 9 12 6 10 15 19 21 21 20 19 16 16 16 17 18 17 17 16 16 16 14 12 10 10 9 9 7 8 8 8 8 8 7
11 6 14 15 15 12 11 1 6 13 15 6 16 3 8 18 18 16 21 20 20 19 17 18 21 20 19 18 16 15 15 14 14 11 12 10 8 7 6 8 8 9 9 8
8 11 18 17 14 10 5 6 8 12 4 10 10 3 7 20 17 16 17 22 21 21 19 17 22 22 20 18 18 17 15 14 13 13 9 8 7 7 5 8 8 9 8 9
1 12 13 13 10 10 2 9 6 4 3 7 11 9 12 17 26 26 22 19 21 20 20 19 20 19 19 19 18 17 16 15 14 12 11 8 7 5 4 7 7 7 9 9
8 13 9 9 14 12 13 14 7 8 7 4 4 8 4 19 14 23 26 25 22 21 20 19 17 18 21 21 19 18 16 16 15 12 11 10 8 6 8 8 8 9 9 9
13 14 16 11 14 13 18 18 8 10 10 9 6 6 3 6 12 14 20 19 21 21 19 19 19 21 17 21 20 18 17 16 14 12 11 11 8 6 7 10 4 10 11 9
12 11 18 11 14 10 16 19 17 15 6 10 10 6 6 7 11 14 20 24 18 19 18 17 21 21 20 23 22 20 17 16 15 14 11 10 10 9 8 6 7 7 7 10
3 10 12 16 15 16 14 14 13 9 10 12 8 10 6 10 11 16 19 24 19 14 17 17 19 18 19 21 19 18 17 15 14 14 12 11 10 9 9 8 7 6 8 10
9 9 12 14 15 17 11 13 14 14 14 8 10 8 7 9 8 16 19 20 22 25 20 15 18 20 19 20 19 18 15 15 15 14 15 13 11 10 9 8 6 7 9 10
10 8 8 18 13 13 21 17 17 11 12 12 9 5 5 5 9 9 13 13 17 17 18 17 18 20 20 20 20 21 14 11 12 12 16 15 12 11 11 10 7 6 7 10
5 9 9 8 9 9 14 16 18 20 17 16 11 3 6 7 8 10 10 11 10 11 14 14 18 15 13 11 11 15 15 10 9 11 13 13 15 13 12 12 12 10 9 9
3 4 11 4 14 16 17 12 16 13 13 14 12 6 8 10 10 9 10 12 13 15 17 15 14 14 13 13 11 10 12 11 9 9 12 12 13 13 13 13 13 13 12 12
3 2 5 5 6 4 8 15 15 15 18 12 8 12 9 10 11 12 10 9 12 12 14 14 13 19 19 18 19 17 11 10 7 6 6 7 9 11 12 12 13 12 11 11
5 2 3 6 4 5 9 5 6 5 6 7 8 6 5 9 9 10 10 10 9 13 10 9 9 16 18 17 17 20 17 12 9 10 9 7 10 9 9 10 10 10 9 9
2 5 5 8 1 7 10 6 4 3 1 6 10 8 9 10 9 10 10 10 9 9 11 11 10 12 12 12 16 14 17 18 14 10 8 8 6 8 10 10 9 7 7 7
6 3 6 3 4 11 8 4 4 5 4 3 3 3 6 10 11 10 9 10 10 10 9 10 12 13 11 14 15 14 12 14 13 11 10 7 7 8 5 8 8 7 6 6
0 3 3 5 9 6 4 8 7 7 5 5 1 7 11 13 14 8 9 9 12 12 13 14 14 14 14 12 12 14 13 15 19 17 13 10 10 11 7 6 5 5 5 6
3 1 5 8 4 7 6 5 6 7 4 9 3 6 9 13 9 6 12 13 13 15 15 18 17 16 19 17 17 18 15 16 15 10 13 10 8 9 9 7 6 8 7 12
3 3 6 4 5 7 5 5 2 6 4 10 4 4 7 9 6 20 15 14 17 17 17 14 13 14 14 14 14 17 14 12 10 9 12 11 8 9 8 8 9 10 11 11
3 3 3 2 4 4 9 1 5 6 6 9 2 1 5 7 11 17 17 17 22 21 17 14 14 13 11 11 11 11 10 8 8 8 8 10 9 7 8 9 8 8 10 10
3 4 4 4 5 5 6 8 6 7 7 6 6 2 5 8 12 15 14 14 17 18 16 14 13 11 8 8 8 9 7 7 7 7 7 7 8 8 7 8 8 9 8 7
3 1 2 3 6 5 4 4 7 9 9 7 2 4 7 11 14 14 13 14 16 16 14 12 12 10 8 7 8 7 7 6 6 6 6 6 6 7 6 5 4 4 4 4
3 5 3 4 3 3 5 5 5 7 8 8 5 5 8 12 14 14 13 15 16 14 13 11 9 9 8 6 7 5 5 6 6 6 5 5 6 6 8 8 6 5 7 4
6 5 5 2 6 3 6 3 3 4 6 6 5 5 7 12 13 16 16 16 15 15 11 10 8 8 8 7 7 6 5 5 6 6 6 5 5 6 7 8 9 8 7 5

GFSCGP_925_spd_117.txt.gz
Wind_Speed
15 12 17 20 21 5 8 13 19 15 14 14 13 10 16 12 6 12 18 19 18 18 21 18 19 18 16 17 16 11 11 14 13 14 14 14 12 10 8 11 11 6 7 5
11 16 17 19 13 10 13 3 20 11 16 5 11 16 20 16 16 15 14 17 17 16 18 19 19 19 18 16 17 16 11 14 10 9 3 9 12 11 10 9 10 9 7 6
14 15 18 17 15 10 16 4 17 19 19 14 14 10 20 21 13 16 15 18 17 17 20 11 19 19 18 17 15 16 13 13 12 6 6 7 11 12 10 9 11 10 9 8
14 8 15 14 14 15 16 4 14 23 23 9 21 4 15 18 19 18 15 18 16 20 8 24 21 21 23 19 16 15 15 12 11 11 9 11 7 9 7 12 11 12 8 8
15 10 12 16 18 16 2 11 16 33 14 9 17 6 11 20 20 23 19 19 24 17 27 21 22 23 19 20 18 17 15 13 13 11 10 11 9 9 8 8 11 7 6 8
17 10 11 17 18 12 4 10 7 8 5 11 13 7 12 16 25 26 26 26 27 29 20 23 25 26 19 20 19 18 17 14 13 10 9 7 6 2 7 7 7 10 11 11
14 11 15 14 18 8 10 12 5 7 7 3 22 11 9 24 31 31 22 25 21 21 22 20 19 19 25 23 19 20 18 16 14 13 12 9 7 6 6 8 9 8 8 12
14 12 16 11 17 13 17 13 7 9 10 10 10 6 11 21 27 24 23 21 15 17 18 20 18 32 23 20 19 19 20 18 16 14 12 10 7 7 8 8 3 8 9 8
14 18 20 15 14 18 16 16 18 14 18 4 9 9 11 12 22 19 25 24 23 20 17 20 23 23 18 24 22 19 20 19 17 15 13 12 10 6 3 0 6 7 8 9
10 11 19 17 14 16 17 17 16 11 19 15 12 9 12 17 17 17 23 27 28 24 12 18 20 21 22 16 27 20 20 20 18 17 13 12 11 9 7 5 6 5 5 8
13 9 10 12 18 19 13 14 16 16 16 7 8 3 2 20 18 19 21 21 22 10 5 19 16 30 17 28 15 20 21 20 19 17 14 12 11 10 10 9 8 8 9 10
14 8 13 19 15 20 18 18 15 12 20 14 4 5 4 6 14 17 15 19 22 23 25 12 12 8 29 17 18 22 23 20 18 17 16 15 12 11 11 11 10 9 8 12
5 10 12 7 16 18 19 16 21 20 17 17 12 4 6 3 6 11 22 16 15 16 15 15 12 6 24 16 15 16 12 10 10 15 17 16 15 13 12 12 11 9 9 10
7 14 13 4 5 11 17 20 20 19 14 17 14 20 15 14 12 8 11 11 10 17 15 12 11 11 19 19 18 10 12 8 4 8 9 17 16 14 13 13 13 13 11 11
9 17 15 6 17 22 19 21 18 18 19 17 3 11 21 20 18 14 11 11 12 11 14 13 14 15 18 18 17 17 14 14 9 7 8 9 11 11 11 11 13 15 14 13
8 9 11 10 10 16 11 20 15 18 20 15 5 15 3 19 20 17 13 11 11 8 11 14 15 13 14 17 19 16 15 14 12 10 5 7 7 6 7 9 11 12 14 13
8 4 5 10 10 10 6 1 9 8 10 7 8 3 7 19 12 13 13 8 7 9 9 9 9 10 13 16 15 15 15 14 15 9 11 8 4 6 7 7 9 11 10 10
7 3 8 1 11 16 8 16 10 7 7 7 3 7 9 16 15 12 10 12 10 8 8 8 9 11 11 12 13 15 13 11 13 11 8 7 6 4 3 7 7 8 8 7
6 3 5 4 2 8 14 13 10 13 9 5 5 13 10 12 14 10 9 8 11 12 12 12 13 13 14 12 11 11 10 9 8 9 7 7 6 6 4 5 2 5 5 5
6 9 11 3 10 3 7 11 6 9 8 19 11 7 5 3 4 9 10 12 14 17 16 15 13 13 13 13 15 18 15 13 9 8 9 10 7 7 7 6 5 1 5 7
6 8 10 1 4 5 2 2 17 12 5 10 5 3 7 2 9 17 15 12 15 16 18 18 17 16 14 15 15 18 15 15 12 10 9 7 7 8 6 7 7 6 7 9
1 4 6 4 9 4 8 1 3 4 4 7 8 9 13 12 8 12 13 14 18 20 19 18 18 17 15 13 17 15 14 12 11 11 6 7 7 6 7 6 7 8 8 8
4 5 3 8 4 6 8 10 8 6 6 6 6 4 11 6 11 12 11 14 17 18 17 15 16 16 13 11 10 14 11 10 9 10 8 6 6 7 6 6 7 6 5 6
3 2 4 1 8 6 5 7 8 8 9 8 5 2 5 10 14 12 10 12 16 20 19 18 14 14 13 11 10 10 8 8 7 8 7 7 5 6 5 5 4 4 5 5
4 6 6 4 8 5 4 6 5 6 7 8 6 4 3 11 11 11 10 12 14 13 13 13 14 12 11 9 9 8 6 6 7 7 7 7 7 6 6 8 6 4 1 3
7 4 5 2 6 5 8 4 0 2 4 5 5 4 6 6 10 10 8 12 14 13 12 11 11 12 10 9 7 6 6 5 4 4 5 5 6 8 8 7 6 7 6 4

GFSCGP_925_spd_123.txt.gz
Wind_Speed
4 2 7 11 12 16 7 7 13 9 7 5 2 2 10 7 9 13 10 12 12 13 18 30 30 31 28 26 23 26 23 23 15 13 10 10 13 14 22 18 16 12 7 9
2 10 11 15 15 15 14 10 11 8 15 3 5 6 10 11 6 8 7 13 14 11 13 24 29 29 27 27 26 26 23 21 15 16 13 11 9 11 23 17 15 14 9 5
9 12 18 15 12 14 15 16 11 10 11 6 10 3 7 10 7 10 7 5 10 19 17 16 26 30 29 30 28 25 23 21 16 11 12 13 9 16 14 15 13 12 9 8
9 15 14 11 10 8 3 13 14 21 9 4 8 2 6 10 15 8 9 6 4 17 15 17 25 28 27 34 29 27 23 21 15 17 13 11 13 18 19 19 12 13 9 9
11 10 9 9 9 13 8 24 17 20 6 9 4 1 4 11 18 20 13 6 6 15 17 15 26 31 31 34 33 29 25 24 19 20 20 19 15 14 17 14 14 15 12 11
9 10 7 8 7 4 19 17 9 4 4 3 10 4 7 12 27 21 14 10 8 8 13 18 22 34 31 29 29 33 29 25 24 22 21 22 14 14 18 17 16 17 15 15
8 10 9 9 4 11 19 12 2 1 3 4 4 8 15 13 18 24 23 14 12 13 10 13 14 23 27 32 31 31 31 29 24 22 21 19 13 12 15 18 19 18 16 17
6 6 7 3 5 7 11 10 5 5 2 5 7 6 7 16 15 20 22 15 15 15 11 14 19 22 29 29 34 32 32 29 26 21 20 17 15 11 18 19 14 15 19 19
4 6 6 10 9 8 9 6 15 8 4 4 6 4 14 8 12 17 19 17 18 14 15 14 19 24 23 30 34 36 33 29 26 23 19 17 14 11 12 13 14 12 9 21
7 4 8 6 8 11 7 5 2 3 8 4 7 6 3 10 5 4 14 18 16 10 14 15 22 21 23 38 37 37 36 33 29 25 21 19 15 14 10 13 10 4 6 15
7 4 10 9 5 7 5 5 3 1 3 3 3 4 7 16 4 3 8 9 13 13 14 15 22 25 25 29 33 32 35 32 28 24 23 19 16 13 10 9 11 8 6 9
8 3 5 8 9 11 8 8 7 5 8 2 5 5 8 16 10 9 14 15 13 16 11 15 24 27 19 24 31 31 31 33 29 22 23 21 18 15 14 13 11 11 9 10
6 5 5 10 7 6 5 8 6 4 2 5 3 4 12 11 12 17 18 17 14 12 11 13 14 18 19 16 26 28 28 27 25 20 23 19 18 17 17 13 13 10 11 13
4 4 4 1 7 10 8 12 9 5 2 5 4 5 10 9 10 3 9 13 11 19 17 15 14 17 20 21 15 19 25 23 21 14 21 22 17 12 12 12 16 12 13 10
3 6 5 8 10 9 7 14 14 8 9 5 6 6 9 9 7 4 9 18 13 13 14 14 16 17 26 19 12 5 10 19 14 7 21 23 9 18 14 7 8 16 14 11
5 4 6 5 12 10 6 13 21 15 14 9 12 7 2 8 2 11 10 20 21 17 11 13 14 22 21 29 24 12 16 12 14 11 17 21 16 18 19 19 14 9 10 9
3 3 5 0 8 10 4 14 18 12 16 5 5 5 6 6 8 6 15 7 4 12 13 14 12 17 17 17 22 27 32 27 20 15 17 17 19 25 22 18 17 14 14 13
3 1 2 2 6 2 1 13 9 14 13 14 13 11 8 10 7 6 6 8 11 12 10 9 13 15 20 18 18 20 23 22 19 16 14 12 12 12 11 13 12 14 13 11
14 3 3 2 1 1 4 5 5 7 6 7 7 7 12 11 11 11 9 11 10 10 12 13 15 18 19 15 17 15 12 9 8 9 11 9 9 8 7 10 7 6 9 9
11 13 2 5 4 1 3 10 7 5 5 4 6 6 5 5 5 3 9 12 12 14 12 12 14 16 21 18 17 17 15 15 13 13 12 11 10 9 9 8 7 7 11 13
4 4 7 8 3 3 5 9 8 3 4 9 7 7 3 5 4 5 13 14 17 12 12 14 15 14 13 13 16 19 15 15 13 13 13 12 10 9 11 13 11 13 14 15
1 2 3 3 4 2 2 7 1 4 5 11 5 4 5 8 9 11 10 12 15 13 12 14 17 15 12 13 16 17 17 15 15 19 21 18 15 13 10 12 13 14 13 12
1 5 5 6 5 5 3 4 5 5 5 3 8 9 10 11 11 12 8 10 10 12 13 14 16 16 15 13 14 17 14 13 13 16 20 18 17 15 12 13 14 13 10 9
2 3 4 5 8 7 7 7 8 7 6 7 9 16 12 12 11 10 7 8 11 14 15 16 16 15 15 15 15 14 13 12 12 13 14 15 16 13 10 10 10 11 11 7
5 8 7 3 5 4 7 8 7 7 8 9 7 12 12 10 11 9 9 10 13 15 17 16 14 13 14 15 14 14 11 12 12 12 10 11 10 10 12 12 12 12 13 11
1 3 2 3 6 5 5 7 5 8 8 7 9 12 14 11 7 10 7 12 14 14 15 16 16 15 13 12 11 11 10 9 9 9 9 9 11 7 5 6 8 9 8 6